Location: Brunn
(48.6833°N, 15.5167°E)
Time: 01:21:11
(UTC+00:00)

Daily predictions for brighter satellites

Satellite Brightness Start Highest point End
(mag) Time Altitude Azimuth Time Altitude Azimuth Time Altitude Azimuth
Cosmos 2082 Rocket 4.2 01:00:46 25° NNE 01:00:46 25° NNE 01:03:01 10° NNE
CZ-2D R/B 4.2 01:23:55 10° N 01:25:31 20° N 01:25:31 20° N
Cosmos 2344 4.5 01:36:41 35° SE 01:37:33 36° ESE 01:44:25 10° NE
ARIANE 5 R/B 4.0 01:39:48 10° NNE 01:43:01 34° NE 01:43:01 34° NE
USA 267 3.4 01:42:53 10° ENE 01:48:35 65° E 01:48:35 65° E
NOSS 3-2 (A) 4.2 01:45:02 10° NW 01:52:19 66° NE 02:00:39 10° SE
Resurs 1-4 Rocket 4.2 01:55:49 10° N 01:57:29 18° NNW 01:57:29 18° NNW
CENTAUR R/B 3.6 01:55:40 10° NW 02:03:26 59° NE 02:12:07 10° ESE
Cosmos 2360 Rocket 4.2 02:10:56 10° NNW 02:22:23 10° SSE 02:12:08 17° NNW
ADEOS II 3.6 02:14:56 10° N 02:17:29 26° NNW 02:17:29 26° NNW
IDEFIX/ARIANE 42P 3.3 02:16:07 10° N 02:19:41 44° N 02:19:41 44° N
USA 234 3.2 02:18:16 10° SE 02:24:09 66° S 02:24:09 66° S
ISS -0.8 02:27:42 16° E 02:27:42 16° E 02:28:30 10° E
ADEOS Rocket 4.4 02:30:07 22° NNW 02:30:07 22° NNW 02:32:01 10° NNW
CZ-4C R/B 4.1 02:25:01 14° SE 02:27:19 19° ESE 02:31:07 10° ENE
Meteor 2-15 Rocket 4.4 02:29:09 72° NW 02:29:09 72° NW 02:34:56 10° N
CZ-2C R/B 4.4 02:26:22 10° NNE 02:28:51 32° NE 02:28:51 32° NE
Cosmos 1553 Rocket 3.8 02:32:42 76° W 02:32:47 76° W 02:39:03 10° N
Meteor 2-2 Rocket 4.4 02:33:06 61° SSE 02:34:11 78° E 02:40:14 10° NNE
NOSS 3-2 (C) 4.2 02:26:59 10° NW 02:34:21 72° NE 02:42:48 10° SE
Cosmos 1417 Rocket 4.4 02:35:32 73° SW 02:36:10 82° W 02:42:35 10° N
Lacrosse 5 2.2 02:40:09 56° SE 02:40:09 56° SE 02:44:09 10° SE
Cosmos 2082 Rocket 3.9 02:42:36 21° NW 02:42:36 21° NW 02:46:28 10° N
MSX 3.7 02:38:30 10° N 02:44:10 66° WNW 02:44:10 66° WNW
Cosmos 2333 Rocket 2.6 02:39:31 10° NNW 02:45:17 65° ENE 02:51:01 10° SE
Cosmos 2221 3.3 02:53:28 41° NNW 02:53:28 41° NNW 02:56:26 10° N
Cosmos 2315 Rocket 4.4 02:49:46 12° S 02:55:27 63° E 03:01:35 10° NNE
Cosmos 1805 Rocket 4.0 02:51:08 10° N 02:55:35 63° ENE 03:00:00 10° SSE
Cosmos 2219 Rocket 2.4 02:54:34 10° NNW 03:00:15 72° ENE 03:05:55 10° SE
Landsat 5 3.8 02:57:06 10° SSE 03:00:52 58° ENE 03:04:46 10° N
CZ-2C R/B 2.2 02:56:12 10° NNE 03:00:59 81° ESE 03:02:02 54° S
Sich 1 3.2 03:07:59 10° N 03:12:26 71° E 03:16:48 10° SSE
Cosmos 1606 2.6 03:12:56 83° S 03:13:05 90° N 03:17:01 10° N
USA 238 DEB 3.8 03:07:29 10° NW 03:14:38 64° SW 03:22:05 10° SSE
USA 238 3.8 03:07:36 10° NW 03:14:45 65° SW 03:22:11 10° SSE
COSMOS 2428 2.8 03:10:52 10° NNW 03:16:37 80° ENE 03:22:21 10° SSE
ATLAS 3B R/B 3.9 03:11:50 10° NW 03:18:21 42° NE 03:25:08 10° ESE
Cosmos 1666 Rocket 4.4 03:15:04 10° N 03:19:21 52° ENE 03:23:39 10° SSE
ATLAS 5 CENTAUR R/B 2.9 03:19:18 18° S 03:21:34 33° ESE 03:25:30 10° NE
Cosmos 909 Rocket 4.4 03:18:01 18° SSW 03:22:56 65° ESE 03:29:09 10° NE
S3M 4.2 03:21:13 38° WSW 03:22:56 47° WNW 03:28:55 10° N
SeaSat 1 3.4 03:18:13 10° SE 03:22:57 48° NE 03:27:42 10° NNW
ARIANE 5 R/B 3.5 03:19:16 10° N 03:23:22 29° WNW 03:23:22 29° WNW
Cosmos 1745 Rocket 4.4 03:19:22 10° NNW 03:25:08 38° W 03:26:32 34° WSW
CZ-4C R/B 2.8 03:30:56 68° WSW 03:30:57 68° WSW 03:34:26 10° NNW
USA 267 3.6 03:26:00 10° NE 03:32:20 54° NNW 03:35:57 26° W
FENGYUN 3A 3.6 03:28:13 10° NNE 03:33:42 89° ESE 03:39:09 10° SSW
Meteor 1-25 Rocket 4.2 03:29:51 10° N 03:35:27 84° E 03:41:01 10° SSE
Cosmos 1709 Rocket 4.1 03:30:52 10° NNW 03:37:02 52° W 03:43:11 10° SSW
Cosmos 2322 3.8 03:31:36 10° NW 03:37:07 52° WSW 03:42:34 10° S
NOSS 0 Rocket 4.1 03:32:11 10° NNW 03:38:23 73° ENE 03:44:34 10° SE
Cosmos 2184 Rocket 4.4 03:33:06 10° N 03:39:25 69° ENE 03:45:46 10° SSE
Meteor 1-4 Rocket 4.4 03:42:49 17° NW 03:42:49 17° NW 03:44:15 10° NNW
H-2A R/B 1.8 03:37:45 10° SSE 03:41:59 82° WSW 03:46:09 10° NNW
Cosmos 1151 Rocket 3.6 03:38:50 10° S 03:43:03 57° E 03:47:17 10° NNE
NOSS 3-2 (A) 4.4 03:36:08 10° NW 03:43:10 41° WSW 03:50:57 10° S
SWAS 4.5 03:40:52 10° NW 03:45:07 56° WSW 03:49:20 10° SSE
COSMOS 2487 3.0 03:50:12 34° WNW 03:50:22 35° WNW 03:53:34 10° N
Cosmos 1633 Rocket 3.0 03:46:08 10° N 03:50:35 88° E 03:54:56 10° S
Cosmos 2344 3.7 03:46:42 23° WSW 03:51:28 59° NW 03:59:41 10° NE
Geosat 3.9 03:48:08 10° NNE 03:53:12 86° WNW 03:58:04 11° SSW
SKYMED 2 4.0 03:49:10 10° SSE 03:53:27 66° ENE 03:57:47 10° N
CENTAUR R/B 3.4 03:46:31 10° NW 03:54:20 51° WSW 04:02:48 10° S
Cosmos 2251 Rocket 3.9 03:53:53 23° WSW 03:56:57 45° WNW 04:02:08 10° NNE
Cosmos 614 Rocket 4.0 03:54:14 16° SW 03:58:24 61° WNW 04:03:35 10° NNE
Meteor 1-20 Rocket 4.2 03:52:54 10° NNW 03:58:32 63° W 04:04:14 10° S
Cosmos 2360 Rocket4.404:04:24SW04:04:24SW03:53:49NW
IDEFIX/ARIANE 42P 4.4 03:57:40 10° NNW 03:59:59 13° NW 04:00:30 13° WNW
ISS -3.6 04:00:40 30° W 04:02:03 55° SSW 04:05:20 10° SE
ALOS 2.4 03:57:36 10° N 04:02:08 52° WNW 04:06:39 10° SW
Cosmos 1933 3.4 03:58:17 10° SSW 04:02:14 56° WNW 04:06:16 10° N
CZ-2C R/B 4.3 04:01:29 10° NNW 04:04:11 18° WNW 04:04:14 18° WNW
Cosmos 2237 Rocket 2.4 04:02:17 10° NNW 04:08:00 78° ENE 04:13:40 10° SSE
USA 234 4.3 04:03:44 10° S 04:08:35 22° SW 04:11:34 16° W
Meteor 1-31 Rocket 2.7 04:06:07 10° NNE 04:10:01 89° WNW 04:13:52 10° SSW
CSL-04 DEB 4.2 04:06:23 10° SSE 04:10:20 87° WSW 04:14:18 10° NNW
Iridium 51 4.2 04:07:22 10° NNW 04:11:03 50° W 04:14:30 10° SSW
RESURS DK-1 4.4 04:08:48 10° S 04:12:22 29° ESE 04:15:57 10° NE
Cosmos 407 Rocket 3.4 04:08:15 10° SSW 04:13:25 77° WNW 04:18:35 10° NNE
CZ-4C R/B 2.1 04:10:13 12° SW 04:14:51 79° NW 04:20:59 10° NE
USA 276 2.1 04:16:02 21° W 04:18:01 78° N 04:21:13 10° ENE
Nadezhda 1 Rocket 4.1 04:14:37 10° S 04:20:45 81° E 04:27:02 10° N
Lacrosse 5 3.2 04:19:24 16° W 04:21:27 20° SW 04:25:02 10° S
NOSS 3-4 (A) 3.4 04:17:02 10° SW 04:22:56 81° NW 04:29:21 10° NE
NOSS 3-4 (C) 3.4 04:17:09 10° SW 04:23:02 81° NW 04:29:27 10° NE
Cosmos 1190 Rocket 4.0 04:19:46 10° SSW 04:25:04 79° WNW 04:30:25 10° NNE
Cosmos 1328 Rocket 3.5 04:20:56 10° SSW 04:25:12 64° WNW 04:29:31 10° N
Cosmos 1515 Rocket 3.7 04:23:01 10° S 04:27:21 79° E 04:31:45 10° NNE
Cosmos 2227 Rocket 3.4 04:22:40 10° S 04:28:03 46° ESE 04:33:27 10° NE
SJ-12 3.8 04:24:31 10° N 04:28:34 68° WNW 04:32:35 10° SSW
Cosmos 2333 Rocket 3.2 04:24:36 10° NW 04:29:04 24° WSW 04:33:32 10° SSW
SL-16 R/B 3.3 04:25:28 10° NNW 04:31:00 47° NE 04:36:29 10° SE
Meteor PRIRODA 4.0 04:27:32 10° NNE 04:31:17 71° ESE 04:34:59 10° S
Cosmos 1484 Rocket 3.7 04:28:34 10° N 04:31:41 25° WNW 04:34:46 10° WSW
Cosmos 676 Rocket 4.3 04:26:59 10° SSW 04:32:17 76° ESE 04:37:34 10° NNE
Cosmos 1666 3.5 04:28:53 10° N 04:32:40 57° ENE 04:36:27 10° SSE
Cosmos 1437 Rocket 3.1 04:31:03 10° SSW 04:34:57 44° WNW 04:38:49 10° N
Cosmos 1470 Rocket 3.6 04:31:00 10° NNW 04:35:16 55° W 04:39:29 10° S
CZ-4B R/B 3.3 04:31:03 10° NNE 04:35:36 84° ESE 04:40:07 10° SSW
Cosmos 1689 Rocket 2.8 04:35:09 10° SSE 04:37:55 53° ENE 04:40:43 10° N
ATLAS 2AS CENTAUR R/B 3.1 04:30:19 10° SW 04:38:17 89° SE 04:46:06 10° NE
CZ-2C R/B 4.0 04:35:47 10° NNW 04:38:34 16° WNW 04:41:18 10° W
Cosmos 2327 Rocket 4.4 04:34:09 10° NNW 04:40:11 66° W 04:46:12 10° S
CZ-4B R/B 1.7 04:37:44 10° S 04:40:38 37° W 04:43:30 10° NNW
deb Chang Zheng 4 3.7 04:36:56 10° NNE 04:41:15 82° ESE 04:45:34 10° SSW
Envisat 3.4 04:36:20 10° NNE 04:41:26 68° ESE 04:46:29 10° S
COSMO-SKYMED 1 3.0 04:37:30 10° S 04:41:37 41° W 04:45:46 10° NNW
Cosmos 2297 Rocket 2.5 04:37:31 10° SSW 04:43:08 74° ESE 04:48:47 10° NNE
Cosmos 2219 Rocket 3.4 04:39:31 10° NW 04:43:37 21° W 04:47:43 10° SSW
Cosmos 1782 3.3 04:41:13 10° SW 04:44:53 36° WNW 04:48:35 10° N
Cosmos 1295 Rocket 4.4 04:40:19 10° NNW 04:46:22 70° W 04:52:24 10° S
NOSS 7 (H) 4.1 04:43:45 10° SW 04:47:06 89° WNW 04:50:02 10° NE
Cosmos 1140 Rocket 3.8 04:45:59 10° SW 04:50:57 45° WNW 04:55:57 10° NNE
Cosmos 1500 3.6 04:48:41 10° NNW 04:52:16 40° W 04:55:51 10° SSW
Cosmos 1980 4.0 04:47:21 10° NW 04:52:47 48° WSW 04:58:11 10° S
ERS-2 2.0 04:51:18 10° S 04:54:54 75° WSW 04:58:34 10° NNW
Cosmos 1933 Rocket 3.8 04:51:19 10° NNW 04:55:40 52° W 05:00:00 10° S
